Flag Weather past 2 weeks in Cochabamba, Bolivia

Now
73 °F

Partly cloudy.


Feels Like: 77 °F
Forecast: 59 / 82 °F
Wind: 7 mph from Southeast

Location: Cochabamba Airport

Current Time: Nov 24, 2014 at 8:57:23 PM

Latest Report: Nov 24, 2014 at 8:00 PM


Visibility: N/A

Pressure: 30.04 "Hg

Humidity: 36%

Dew point: 45 °F

Location of CochabambaLocation

Historic Weather in Cochabamba — Graph

°F

Cochabamba temperature yesterday

Maximum temperature yesterday: 75 °F (at 3:00 PM)
Minimum temperature yesterday: 55 °F (at 3:00 AM)
Average temperature yesterday: 64 °F

Past Weeks' High & Low Weather Summary

 TemperatureHumidityPressure
High88 °F (Nov 12, 3:00 PM)100% (Nov 13, 2:00 AM)30.45 "Hg (Nov 13, 2:00 AM)
Low52 °F (Nov 16, 5:00 AM)8% (Nov 19, 3:00 PM)29.95 "Hg (Nov 12, 4:00 PM)
Average66 °F49%30.20 "Hg
* Reported Nov 12 11:00 AM — Nov 24 7:00 PM, Cochabamba, Weather by CustomWeather, © 2014

Note: Actual official high and low records may vary slightly from our data, if they occured in-between our weather recording intervals... More about our weather records

Advertising

Cochabamba weather history for previous 24 hours

 ConditionsComfort  
Time TempWeatherWind HumidityBarometerVisibility
7:00 PM
Nov 24
73 °FPartly cloudy.6 mph36%29.98 "HgN/A
6:00 PM75 °FScattered clouds.14 mph34%29.98 "HgN/A
5:00 PM81 °FPassing clouds.12 mph26%29.95 "HgN/A
4:00 PM82 °FPartly sunny.12 mph25%29.95 "HgN/A
3:00 PM84 °FPartly sunny.6 mph20%29.98 "HgN/A
2:00 PM84 °FPartly sunny.5 mph23%30.01 "HgN/A
1:00 PM81 °FPartly sunny.3 mph26%30.07 "HgN/A
12:00 PM79 °FBroken clouds.3 mph32%30.09 "HgN/A
11:00 AM75 °FBroken clouds.5 mph34%30.12 "HgN/A
10:00 AM72 °FBroken clouds.3 mph41%30.15 "HgN/A
9:00 AM68 °FPartly sunny.No wind49%30.18 "Hg6 mi
8:00 AM64 °FBroken clouds.No wind64%30.18 "Hg5 mi
7:00 AM61 °FPartly sunny.No wind68%30.15 "Hg4 mi
6:00 AM55 °FPartly sunny.5 mph77%30.12 "Hg2 mi
5:00 AM57 °FPartly cloudy.No wind72%30.12 "HgN/A
4:00 AM59 °FPassing clouds.No wind68%30.12 "HgN/A
3:00 AM59 °FPartly cloudy.6 mph72%30.12 "HgN/A
2:00 AM61 °FPartly cloudy.3 mph63%30.15 "HgN/A
1:00 AM57 °FPartly cloudy.2 mph77%30.15 "HgN/A
12:00 AM63 °FClear.No wind59%30.18 "HgN/A
11:00 PM
Nov 23
63 °FPartly cloudy.No wind64%30.18 "HgN/A
10:00 PM64 °FPartly cloudy.7 mph56%30.18 "HgN/A
9:00 PM66 °FPartly cloudy.12 mph52%30.18 "HgN/A
8:00 PM66 °FPartly cloudy.15 mph52%30.15 "HgN/A
Weather by CustomWeather, © 2014

See weather overviewHow to use our weather pages